EW0072 Weather Reports


time (UTC)temp
F
wind
direction
speed
knots
gust
knots
rain 1hr
in
rain 24hr
in
rain mn
in
humidity
%
barometer
mb
20240222094509 37 360 0.0 0.0 0.00 0.00 0.00 77 1005.5
20240222093006 37 360 0.0 0.0 0.00 0.00 0.00 77 1005.1
20240222091505 37 360 0.0 0.0 0.00 0.00 0.00 76 1005.2
20240222090057 38 360 0.9 2.6 0.00 0.00 0.00 74 1005.1
20240222084551 38 193 0.0 0.0 0.00 0.00 0.00 75 1005.0
20240222083050 38 193 0.0 0.0 0.00 0.00 0.00 76 1005.0
20240222081550 38 194 0.0 0.0 0.00 0.00 0.00 76 1004.7
20240222080052 37 194 0.0 0.0 0.00 0.00 0.00 77 1004.8
20240222074548 37 194 0.0 0.0 0.00 0.00 0.00 78 1004.9
20240222073050 37 194 0.0 0.0 0.00 0.00 0.00 77 1004.9
20240222071556 37 194 0.0 2.6 0.00 0.00 0.00 77 1004.9
20240222070033 38 194 0.0 0.0 0.00 0.00 0.00 76 1004.4
20240222064531 38 194 0.0 3.5 0.00 0.00 0.00 75 1004.2
20240222063034 39 173 1.7 5.2 0.00 0.00 0.00 74 1003.9
20240222061523 39 360 3.5 5.2 0.00 0.00 0.00 75 1003.7
20240222060022 39 360 4.3 8.7 0.00 0.00 0.00 74 1003.8
20240222054530 40 360 4.3 7.8 0.00 0.00 0.00 73 1003.7
20240222053022 39 360 3.5 6.1 0.00 0.00 0.00 72 1003.6
20240222051519 40 360 5.2 9.6 0.00 0.00 0.00 70 1003.3
20240222050005 41 360 4.3 7.0 0.00 0.00 0.00 66 1003.4
20240222044504 41 360 4.3 7.8 0.00 0.00 0.00 64 1003.0
20240222043003 42 360 6.1 11.3 0.00 0.00 0.00 62 1003.0
20240222041502 42 360 3.5 6.1 0.00 0.00 0.00 59 1002.6
20240222040001 44 360 0.0 3.5 0.00 0.00 0.00 56 1002.5
20240222034501 44 101 2.6 6.1 0.00 0.00 0.00 56 1002.0
20240222033000 44 98 0.0 1.7 0.00 0.00 0.00 52 1001.6
20240222031600 45 97 0.9 3.5 0.00 0.00 0.00 53 1001.3
20240222030049 45 360 0.0 4.3 0.00 0.00 0.00 52 1000.8
20240222024549 45 360 1.7 3.5 0.00 0.00 0.00 52 1000.5
20240222023053 46 360 1.7 5.2 0.00 0.00 0.00 54 1000.3
20240222021556 46 360 0.0 2.6 0.00 0.00 0.00 55 1000.2
20240222020058 46 360 0.0 4.3 0.00 0.00 0.00 55 999.9
20240222014547 47 360 2.6 6.1 0.00 0.00 0.00 54 999.7
20240222013047 47 360 1.7 6.1 0.00 0.00 0.00 53 999.6
20240222011552 48 360 6.1 9.6 0.00 0.00 0.00 52 999.3
20240222010051 49 360 4.3 11.3 0.00 0.00 0.00 51 998.8
20240222004534 52 360 8.7 15.6 0.00 0.00 0.00 43 998.4
20240222003042 55 360 3.5 8.7 0.00 0.00 0.00 27 997.9
20240222001531 57 360 2.6 7.0 0.00 0.00 0.00 27 997.7
20240222000036 58 60 1.7 6.1 0.00 0.00 0.00 24 997.3
20240221234534 59 42 0.9 10.4 0.00 0.00 0.00 22 997.2
20240221233031 61 360 1.7 7.8 0.00 0.00 0.00 12 997.2
20240221231530 60 360 7.0 12.2 0.00 0.00 0.00 12 996.5
20240221230029 60 360 6.1 13.9 0.00 0.00 0.00 12 996.2
20240221224514 60 274 5.2 18.2 0.00 0.00 0.00 12 996.2
20240221223009 61 360 11.3 21.7 0.00 0.00 0.00 12 996.1
20240221221558 59 360 0.9 7.0 0.00 0.00 0.00 28 996.0
20240221220112 59 55 2.6 7.0 0.00 0.00 0.00 28 995.7
20240221214556 60 360 5.2 11.3 0.00 0.00 0.00 27 995.5
20240221213057 61 360 4.3 7.8 0.00 0.00 0.00 25 995.3
20240221211603 61 22 3.5 9.6 0.00 0.00 0.00 24 995.4
20240221210055 62 360 1.7 14.8 0.00 0.00 0.00 24 995.4
20240221204623 64 360 5.2 11.3 0.00 0.00 0.00 22 995.2
20240221203053 64 360 5.2 10.4 0.00 0.00 0.00 19 995.2
20240221201539 64 360 1.7 11.3 0.00 0.00 0.00 20 995.4
20240221200051 64 360 3.5 10.4 0.00 0.00 0.00 18 995.7
20240221194542 64 360 4.3 15.6 0.00 0.00 0.00 12 996.2
20240221193034 64 360 4.3 12.2 0.00 0.00 0.00 12 996.3
20240221191529 63 360 2.6 11.3 0.00 0.00 0.00 12 996.8
20240221190032 63 360 6.1 13.0 0.00 0.00 0.00 12 997.2
20240221184536 63 275 3.5 13.9 0.00 0.00 0.00 12 997.6
20240221183018 63 360 3.5 8.7 0.00 0.00 0.00 12 998.1
20240221181502 62 360 7.0 14.8 0.00 0.00 0.00 12 998.6
20240221180109 62 263 5.2 10.4 0.00 0.00 0.00 13 998.8
20240221174554 60 360 0.9 4.3 0.00 0.00 0.00 16 999.3
20240221173051 60 209 3.5 5.2 0.00 0.00 0.00 17 999.4
20240221171557 59 221 5.2 9.6 0.00 0.00 0.00 17 999.9
20240221170042 59 360 1.7 7.0 0.00 0.00 0.00 20 1000.2
20240221164538 58 360 2.6 7.8 0.00 0.00 0.00 20 1000.4
20240221163034 56 360 0.0 3.5 0.00 0.00 0.00 30 1000.5
20240221161517 53 360 0.0 4.3 0.00 0.00 0.00 32 1000.8
20240221160014 50 205 0.0 3.5 0.00 0.00 0.00 38 1000.9
20240221154510 47 206 0.9 5.2 0.00 0.00 0.00 40 1001.2
20240221153006 45 360 0.9 2.6 0.00 0.00 0.00 46 1001.6
20240221151603 42 205 0.0 1.7 0.00 0.00 0.00 50 1001.5
20240221150055 40 360 0.0 0.0 0.00 0.00 0.00 53 1001.7
20240221144551 38 360 0.0 0.0 0.00 0.00 0.00 57 1001.5
20240221143048 37 360 0.0 0.0 0.00 0.00 0.00 59 1001.4
20240221141539 37 360 0.0 0.0 0.00 0.00 0.00 58 1001.4
20240221140033 38 360 0.0 0.0 0.00 0.00 0.00 56 1001.5
20240221134533 39 360 0.0 0.0 0.00 0.00 0.00 54 1001.6
20240221133033 40 360 0.0 0.0 0.00 0.00 0.00 50 1001.6
20240221131532 39 360 0.0 3.5 0.00 0.00 0.00 52 1001.9
20240221130038 41 360 0.0 2.6 0.00 0.00 0.00 50 1002.0
20240221124536 39 198 0.0 2.6 0.00 0.00 0.00 54 1002.1
20240221123025 37 198 0.0 0.0 0.00 0.00 0.00 60 1002.3
20240221121507 37 198 0.0 0.0 0.00 0.00 0.00 63 1002.6
20240221120004 37 198 0.0 0.0 0.00 0.00 0.00 64 1002.6
20240221114555 37 198 0.0 0.0 0.00 0.00 0.00 65 1002.6
20240221113050 37 198 0.0 0.0 0.00 0.00 0.00 65 1002.6
20240221111549 37 198 0.0 0.0 0.00 0.00 0.00 64 1002.9
20240221110047 37 198 0.0 0.0 0.00 0.00 0.00 65 1003.2
20240221104547 38 198 0.0 0.0 0.00 0.00 0.00 62 1003.3
20240221103043 38 198 0.0 0.0 0.00 0.00 0.00 62 1003.6
20240221101539 39 198 0.0 0.0 0.00 0.00 0.00 59 1003.5
20240221100036 41 198 0.0 0.0 0.00 0.00 0.00 56 1003.6